Flag for India Weather past 2 weeks in Pudukkottai, Tamil Nadu, India

Now
79 °F

Fog.


Feels Like: 82 °F
Forecast: 73 / 94 °F
Wind: 3 mph from Northeast

Location: Tiruchchirapalli

Current Time: Mar 6, 2015 at 10:06:51 AM

Latest Report: Mar 6, 2015 at 7:40 AM


Visibility: 2 mi

Pressure: 29.95 "Hg

Humidity: 89%

Dew point: 75 °F

Location of PudukkottaiLocation

Historic Weather in Pudukkottai — Graph

°F

Pudukkottai temperature yesterday

Maximum temperature yesterday: 97 °F (at 1:40 PM)
Minimum temperature yesterday: 77 °F (at 5:40 AM)
Average temperature yesterday: 87 °F

Past Weeks' High & Low Weather Summary

 TemperatureHumidityPressure
High97 °F (Feb 28, 1:40 PM)94% (Feb 23, 5:40 AM)30.01 "Hg (Feb 23, 5:40 AM)
Low68 °F (Feb 20, 3:40 AM)25% (Feb 24, 3:40 PM)29.71 "Hg (Feb 27, 4:40 PM)
Average84 °F63%29.87 "Hg
* Reported Feb 19 7:40 AM — Mar 6 7:40 AM, Pudukkottai, Weather by CustomWeather, © 2015

Note: Actual official high and low records may vary slightly from our data, if they occured in-between our weather recording intervals... More about our weather records

Advertising

Pudukkottai weather history for previous 24 hours

 ConditionsComfort  
Time TempWeatherWind HumidityBarometerVisibility
7:40 AM
Fri, Mar 6
79 °FFog.3 mph89%29.95 "Hg2 mi
6:40 AM77 °FFog.2 mph94%29.92 "Hg3 mi
5:40 AM77 °FFog.No wind94%29.89 "Hg3 mi
4:40 AM77 °FPassing clouds.2 mph94%29.89 "Hg4 mi
3:40 AM79 °FPassing clouds.3 mph89%29.89 "Hg4 mi
2:40 AM79 °FPassing clouds.3 mph89%29.89 "Hg4 mi
1:40 AM81 °FPassing clouds.No wind84%29.92 "Hg4 mi
12:40 AM81 °FPassing clouds.3 mph84%29.92 "Hg4 mi
11:40 PM
Thu, Mar 5
82 °FPassing clouds.7 mph79%29.95 "Hg4 mi
10:40 PM82 °FPassing clouds.12 mph79%29.95 "Hg4 mi
9:40 PM84 °FPassing clouds.10 mph70%29.92 "Hg4 mi
8:40 PM86 °FPassing clouds.12 mph62%29.89 "Hg4 mi
7:40 PM88 °FPassing clouds.12 mph62%29.86 "Hg4 mi
6:40 PM88 °FPassing clouds.12 mph62%29.83 "Hg4 mi
5:40 PM93 °FPassing clouds.9 mph49%29.80 "HgN/A
4:40 PM95 °FScattered clouds.14 mph47%29.77 "HgN/A
3:40 PM97 °FScattered clouds.9 mph44%29.80 "HgN/A
2:40 PM97 °FScattered clouds.7 mph44%29.83 "HgN/A
1:40 PM97 °FScattered clouds.6 mph42%29.86 "Hg4 mi
12:40 PM95 °FScattered clouds.6 mph44%29.89 "Hg4 mi
11:40 AM91 °FScattered clouds.6 mph56%29.92 "Hg3 mi
10:40 AM88 °FScattered clouds.2 mph70%29.95 "Hg3 mi
Weather by CustomWeather, © 2015

See weather overviewHow to use our weather pages